This demonstration page uses our WeatherBlox Daily Observations layout. Learn more.

Left ArrowRight Arrow

38.80484, -77.04692

Hourly Observations for September 26, 2022

Temp ( °F °C ) Dew Point ( °F °C ) Humidity (%) Winds ( mph kmh ) Pressure ( in mb ) Visibility ( mi km ) Precip ( " mm )
12:52 am 00:52 Partly Cloudy 65 18.3 59 15 81 81 SSW 6 9 29.74 1007 10 16 0.00 0.00
1:52 am 01:52 Partly Cloudy 64 17.8 58 14.4 80 80 SSW 5 7 29.73 1007 10 16 0.00 0.00
2:52 am 02:52 Mostly Clear 64 17.8 59 15 84 84 SSW 3 6 29.73 1007 10 16 0.00 0.00
3:52 am 03:52 Clear 62 16.7 58 14.4 86 86 SSW 3 6 29.72 1007 10 16 0.00 0.00
4:52 am 04:52 Mostly Clear 61 16.1 58 14.4 90 90 SSW 7 11 29.73 1007 10 16 0.00 0.00
5:52 am 05:52 Mostly Clear 61 16.1 58 14.4 90 90 SW 6 9 29.74 1007 10 16 0.00 0.00
6:52 am 06:52 Mostly Clear 61 16.1 57 13.9 87 87 SSW 5 7 29.74 1007 10 16 0.00 0.00
7:52 am 07:52 Mostly Sunny 62 16.7 57 13.9 84 84 S 6 9 29.75 1008 10 16 0.00 0.00
8:52 am 08:52 Mostly Sunny 67 19.4 57 13.9 71 71 SSW 7 11 29.75 1007 10 16 0.00 0.00
9:52 am 09:52 Mostly Sunny 72 22.2 55 12.8 55 55 SW 10 17 29.76 1008 10 16 0.00 0.00
10:52 am 10:52 Mostly Sunny 77 25 51 10.6 40 40 WSW 14 22 29.77 1008 10 16 0.00 0.00
11:52 am 11:52 Mostly Sunny 78 25.6 46 7.8 32 32 WSW 9 15 29.76 1008 10 16 0.00 0.00
12:52 pm 12:52 Mostly Cloudy 77 25 48 8.9 36 36 WSW 13 20 29.76 1008 10 16 0.00 0.00
1:52 pm 13:52 Mostly Cloudy 77 25 46 7.8 33 33 W 7 11 29.74 1007 10 16 0.00 0.00
2:52 pm 14:52 Partly Cloudy 79 26.1 47 8.3 32 32 SSW 12 19 29.73 1007 10 16 0.00 0.00
3:52 pm 15:52 Mostly Cloudy 78 25.6 47 8.3 33 33 SW 13 20 29.72 1006 10 16 0.00 0.00
4:52 pm 16:52 Mostly Cloudy 74 23.3 50 10 43 43 NW 13 20 29.74 1007 10 16 0.00 0.00
5:52 pm 17:52 Mostly Cloudy 73 22.8 50 10 44 44 NNW 10 17 29.75 1008 10 16 0.00 0.00
6:52 pm 18:52 Mostly Cloudy 72 22.2 51 10.6 48 48 N 8 13 29.78 1008 10 16 0.00 0.00
7:52 pm 19:52 Cloudy 70 21.1 49 9.4 47 47 NNW 9 15 29.80 1009 10 16 0.00 0.00
8:52 pm 20:52 Cloudy 69 20.6 47 8.3 45 45 NNE 6 9 29.83 1010 10 16 0.00 0.00
9:52 pm 21:52 Mostly Cloudy 67 19.4 48 8.9 51 51 WSW 3 6 29.85 1011 10 16 0.00 0.00
10:52 pm 22:52 Cloudy 68 20 45 7.2 43 43 W 7 11 29.85 1011 10 16 0.00 0.00
11:52 pm 23:52 Cloudy 66 18.9 46 7.8 48 48 SW 3 6 29.86 1011 10 16 0.00 0.00

Powered by AerisWeather